Weather History for KBDR - April, 2013

Change the Weather History Date:

Monday, April 22, 2013

  Actual Average Record
Temperature  
Mean Temperature 46 °F 52 °F  
Max Temperature 52 °F 60 °F 82 °F (1960)
Min Temperature 39 °F 43 °F 29 °F (1975)
Degree Days  
Heating Degree Days 19 14  
Month to date heating degree days 354 375  
Since 1 July heating degree days 4772 5059  
Cooling Degree Days 0 0  
Month to date cooling degree days 0 0  
Year to date cooling degree days 0 0  
Moisture  
Dew Point 33 °F    
Average Humidity 63    
Maximum Humidity 79    
Minimum Humidity 46    
Precipitation  
Precipitation 0.00 in 0.13 in 1.72 in (2012)
Month to date precipitation 1.08 3.09  
Year to date precipitation 10.64 13.03  
Snow  
Snow 0.00 in 0.00 in 0.00 in (2002)
Month to date snowfall 0.0 0.9  
Since 1 July snowfall 64.3 27.6  
Snow Depth 0.00 in    
Sea Level Pressure  
Sea Level Pressure 30.61 in    
Wind  
Wind Speed 17 mph (East)    
Max Wind Speed 26 mph    
Max Gust Speed 36 mph    
Visibility 10 miles    
Events      
T = Trace of Precipitation, MM = Missing Value Source: NWS Daily Summary

Daily Weather History Graph

Daily Weather History Graph

Search for Another Location

Airport or City:

Trip Planner

Search our weather history database for the weather conditions in past years. The results will help you decide how hot, cold, wet, or windy it might be!

Date:

Astronomy

Apr. 22, 2013 Rise Set
Actual Time 6:02 AM EDT 7:40 PM EDT
Civil Twilight 5:33 AM EDT 8:09 PM EDT
Nautical Twilight 4:57 AM EDT 8:44 PM EDT
Astronomical Twilight 4:20 AM EDT 9:22 PM EDT
Moon 4:24 PM EDT (4/22) 3:57 AM EDT (4/22)
Length of Visible Light 14h 36m
Length of Day
13h 37m
Waxing Gibbous, 87% of the Moon is Illuminated
Apr 22
Waxing Gibbous
Apr 25
Full
May 2
Last Quarter
May 9
New
May 18
First Quarter

Hourly Weather History & Observations

Time (EDT) Temp. Windchill Dew Point Humidity Pressure Visibility Wind Dir Wind Speed Gust Speed Precip Events Conditions
12:52 AM 44.1 °F 40.1 °F 30.9 °F 60% 30.65 in 10.0 mi ESE 6.9 mph - N/A   Clear
1:52 AM 42.1 °F 38.4 °F 30.9 °F 65% 30.64 in 10.0 mi ESE 5.8 mph - N/A   Clear
2:52 AM 41.0 °F 38.0 °F 32.0 °F 70% 30.65 in 10.0 mi ESE 4.6 mph - N/A   Clear
3:52 AM 43.0 °F 38.8 °F 33.1 °F 68% 30.64 in 10.0 mi East 6.9 mph - N/A   Clear
4:52 AM 39.9 °F 35.1 °F 33.1 °F 77% 30.64 in 10.0 mi NNE 6.9 mph - N/A   Clear
5:52 AM 39.0 °F 32.8 °F 30.9 °F 73% 30.66 in 10.0 mi NNE 9.2 mph - N/A   Clear
6:52 AM 39.9 °F 34.5 °F 32.0 °F 73% 30.67 in 10.0 mi NE 8.1 mph - N/A   Clear
7:52 AM 44.1 °F 37.7 °F 30.9 °F 60% 30.67 in 10.0 mi NE 12.7 mph - N/A   Clear
8:52 AM 46.0 °F 38.5 °F 28.9 °F 51% 30.68 in 10.0 mi ENE 19.6 mph - N/A   Clear
9:52 AM 48.0 °F - 28.9 °F 48% 30.69 in 10.0 mi East 18.4 mph - N/A   Clear
10:52 AM 48.9 °F - 30.9 °F 50% 30.68 in 10.0 mi East 19.6 mph 25.3 mph N/A   Clear
11:52 AM 48.9 °F - 33.1 °F 54% 30.66 in 10.0 mi ESE 20.7 mph 32.2 mph N/A   Clear
12:52 PM 50.0 °F - 34.0 °F 54% 30.64 in 10.0 mi ESE 18.4 mph 28.8 mph N/A   Clear
1:52 PM 50.0 °F - 33.1 °F 52% 30.62 in 10.0 mi ESE 19.6 mph - N/A   Clear
2:52 PM 51.1 °F - 32.0 °F 48% 30.60 in 10.0 mi East 18.4 mph - N/A   Clear
3:52 PM 51.1 °F - 34.0 °F 52% 30.57 in 10.0 mi ESE 23.0 mph 29.9 mph N/A   Clear
4:52 PM 50.0 °F - 32.0 °F 50% 30.56 in 10.0 mi ESE 18.4 mph 29.9 mph N/A   Clear
5:52 PM 48.9 °F - 36.0 °F 61% 30.56 in 10.0 mi ESE 19.6 mph 27.6 mph N/A   Clear
6:52 PM 46.9 °F - 37.9 °F 71% 30.55 in 10.0 mi East 20.7 mph 28.8 mph N/A   Clear
7:52 PM 46.0 °F 38.3 °F 37.0 °F 71% 30.55 in 10.0 mi East 20.7 mph 29.9 mph N/A   Clear
8:52 PM 45.0 °F 36.2 °F 35.1 °F 68% 30.55 in 10.0 mi East 24.2 mph 29.9 mph N/A   Clear
9:52 PM 44.1 °F 35.7 °F 36.0 °F 73% 30.54 in 10.0 mi East 20.7 mph 27.6 mph N/A   Clear
10:52 PM 44.1 °F 35.4 °F 37.0 °F 76% 30.53 in 10.0 mi East 21.9 mph 27.6 mph N/A   Clear
11:52 PM 44.1 °F 36.2 °F 34.0 °F 68% 30.53 in 10.0 mi East 18.4 mph 26.5 mph N/A   Partly Cloudy